Terug naar catalogus

ONEWEB-0151

ActiefCommunicatiePO
NORAD 48066·PAYLOAD·🇬🇧 United Kingdom

Gelanceerd Mar 25, 2021 vanaf Vostochny Cosmodrome

Loading…

Volgende Passages (komende 24 uur)

TLE

VersSource: CelesTrak SupGP

Epoch: Sep 14, 2026, 12:39 UTC

1 48066C 21025AA  26257.52722639  .00004064  00000+0  11143-1 0  2573
2 48066  87.8924 302.4485 0001885  93.3229  12.0797 13.13466213    17

Volg ONEWEB-0151 in realtime met AllMySat

Download on the App Store